Regional Weather Roundup
Issued by NWS

Home | Current Version | Previous Version | Text Only | Print | Product List | Glossary On
Versions: 1 2 3 4 5 6 7 8 9 10 11 12 13 14 15 16 17 18 19 20 21 22 23 24 25 26 27 28 29 30 31 32 33 34 35 36 37 38 39 40 41 42 43 44 45 46 47 48 49 50
000
ASUS45 KBOI 060610
RWRID

IDAHO REGIONAL WEATHER ROUNDUP
NATIONAL WEATHER SERVICE BOISE ID
1100 PM MST MON DEC 05 2016

NOTE: "FAIR" INDICATES FEW OR NO CLOUDS BELOW 12000 FEET
WITH NO SIGNIFICANT WEATHER AND/OR OBSTRUCTIONS TO VISIBILITY

IDZ012-014-060700-
SOUTHWEST IDAHO


CITY           SKY/WX    TMP DP  RH WIND       PRES   REMARKS
BOISE          CLEAR     25  14  63 SE9       30.01S WCI  15
CALDWELL       PTCLDY    23  17  78 E10       30.02F WCI  12
MOUNTAIN HOME  CLEAR     20  16  87 E9        30.02F WCI   9
$$

IDZ016-017-060700-
SOUTHCENTRAL IDAHO


CITY           SKY/WX    TMP DP  RH WIND       PRES   REMARKS
BURLEY         CLEAR     10   5  80 CALM      29.99F
JEROME         CLEAR     15   9  76 E8        30.00F WCI   4
TWIN FALLS     CLEAR     10   4  76 S8        29.98F WCI  -2
$$

IDZ019>023-060700-
SOUTHEAST IDAHO


CITY           SKY/WX    TMP DP  RH WIND       PRES   REMARKS
IDAHO FALLS    CLEAR     17   4  56 S7        29.99S WCI   8
POCATELLO      CLEAR     10   4  76 N3        30.00F
REXBURG        CLEAR     14   5  67 S9        29.98S WCI   2
$$

IDZ006-010-011-018-031-032-060700-
CENTRAL IDAHO MOUNTAINS


CITY           SKY/WX    TMP DP  RH WIND       PRES   REMARKS
MCCALL         CLOUDY    13   9  84 W3        29.87F
HAILEY         CLEAR      5   0  78 NW10      29.97S WCI -10
STANLEY          N/A    -12 -17  78 CALM      29.90R
SALMON         CLOUDY     5   1  85 CALM      30.00S
CHALLIS        CLEAR      8   1  73 VRB3      29.95S
$$

IDZ002-004-006-007-026-060700-
NORTHERN IDAHO


CITY           SKY/WX    TMP DP  RH WIND       PRES   REMARKS
LEWISTON       CLOUDY    33  23  66 NE12      29.98F WCI  24
LOWELL           N/A     28  24  85 CALM      30.07F
COEUR D`ALENE  CLOUDY    26  22  84 N9        29.99F WCI  17
MULLAN PASS    CLOUDY    11   8  88 SE5       29.81F WCI   3
$$



USA.gov is the U.S. government's official web portal to all federal, state and local government web resources and services.